Regional Weather Roundup
Issued by NWS Columbia, SC

Current Version | Previous Version | Graphics & Text | Print | Product List | Glossary On
Versions: 1 2 3 4 5 6 7 8 9 10 11 12 13 14 15 16 17 18 19 20 21 22 23 24 25 26 27 28 29 30 31 32 33 34 35 36 37 38 39 40 41 42 43 44 45 46 47 48 49 50
527
ASUS42 KCAE 151610
RWRCAE
REGIONAL WEATHER ROUNDUP
NATIONAL WEATHER SERVICE COLUMBIA SC
1200 PM EDT SUN SEP 15 2019

NOTE: "FAIR" INDICATES FEW OR NO CLOUDS BELOW 12,000 FEET WITH NO
SIGNIFICANT WEATHER AND/OR OBSTRUCTIONS TO VISIBILITY.

NOT ALL STATIONS ARE QUALITY CONTROLLED BY THE NATIONAL
WEATHER SERVICE. USE DATA WITH CAUTION...ESPECIALLY
DEWPOINT OBSERVATIONS.

SCZ001>056-GAZ040-063>065-077-151700-
...UPSTATE SOUTH CAROLINA...

CITY           SKY/WX    TMP DP  RH WIND       PRES   REMARKS
ANDERSON       CLOUDY    82  69  64 NE6       30.17F
LIBERTY        CLOUDY    81  72  73 NE3       30.18F
SPARTANBURG    FAIR      81  68  65 NE5       30.18F
CLEMSON        FAIR      82  71  69 VRB5      30.19F
GREENVILLE     CLOUDY    83  71  67 MISG      30.20F
GREENWOOD      PTSUNNY   82  71  69 NE7       30.17F
GREER          PTSUNNY   82  70  66 CALM      30.19F
ROCK HILL      FAIR      84  68  58 N3        30.17F
CHESTER        FAIR      82  64  54 CALM      30.17F
LAURENS        FAIR      82  70  65 E5        30.17S


...CENTRAL SOUTH CAROLINA...

CITY           SKY/WX    TMP DP  RH WIND       PRES   REMARKS
COLUMBIA APT   PTSUNNY   86  68  54 NE8       30.12F
COLUMBIA OWENS FAIR      86  69  56 VRB6      30.12F
MCENTIRE ANGB  PTSUNNY   88  69  53 N12       30.12F
ORANGEBURG     FAIR      85  68  56 NE13G20   30.11F
SUMTER SHAW    FAIR      86  69  57 NE13      30.12F
AIKEN          FAIR      86  64  48 E14       30.16F
BARNWELL       FAIR      86  70  58 NE13G20   30.11F
MANNING        FAIR      82  70  65 NE10      30.11F
CAMDEN         FAIR      84  70  61 E6G12     30.14F
LANCASTER      CLOUDY    84  70  61 VRB5      30.15F
WINNSBORO      PTSUNNY   81  70  69 NE6       30.15F


...EASTERN AND COASTAL SOUTH CAROLINA...

CITY           SKY/WX    TMP DP  RH WIND       PRES   REMARKS
MYRTLE BEACH   FAIR      84  74  71 E10       30.10F
N MYRTLE BCH   FAIR      85  73  67 NE7       30.10F
MARION         FAIR      81  72  74 NE9       30.12F
HARTSVILLE     FAIR      84  70  61 E8        30.14F
FLORENCE       FAIR      84  70  62 NE9       30.12F
DARLINGTON     FAIR      84  72  67 E10       30.14F
CHARLESTON APT FAIR      85  71  63 NE12      30.07F
MOUNT PLEASANT PTSUNNY   86  75  70 VRB6G15   30.07F HX  95
WALTERBORO     FAIR      86  72  62 N8G16     30.09F
BEAUFORT       FAIR      81  74  79 NE12      30.06F
HILTON HEAD    MOSUNNY   86  73  66 NE12G21   30.06F


...EASTERN GEORGIA...

CITY           SKY/WX    TMP DP  RH WIND       PRES   REMARKS
AUGUSTA BUSH F FAIR      88  69  53 E7        30.11F
AUGUSTA DANIEL FAIR      87  66  49 NE9       30.13F
THOMSON        FAIR      85  68  58 SE7       30.14F
WASHINGTON     FAIR      82  72  69 CALM      30.16S
CLAXTON        FAIR      88  72  57 NE12      30.08F
SYLVANIA       FAIR      87  71  59 E10       30.10F
STATESBORO     FAIR      85  68  56 E9        30.09F
SAVANNAH       FAIR      88  74  63 N13       30.06F HX  96


...SOUTHERN NORTH CAROLINA...

CITY           SKY/WX    TMP DP  RH WIND       PRES   REMARKS
CHARLOTTE      PTSUNNY   84  68  58 NE7       30.18S
MONROE         PTSUNNY   83  69  62 NE6       30.15F
ASHEVILLE      FAIR      77  68  73 NW5       30.26F

$$




USA.gov is the U.S. government's official web portal to all federal, state and local government web resources and services.